Weather in Pontresina

Switzerland     46°29′36″N   9°54′07″E
temp.,
°C
wind,
m/s
gust,
m/s
humid.,
%
clouds,
%
prec.,
mm/h
press.,
hPa
HPBL,
m
9 december, thu
thu901:00−10nnw3496100 2.8 1002133
04:00−12nnw3497100 0.6 100483
07:00−13nnw4598100 0.9 100680
10:00−11n5795100 0.2 1007424
13:00−10nnw5785100 0.4 1006796
16:00−13nnw4497100 0.2 101041
19:00−15nnw33100100 0.3 101427
22:00−19nnw22100100 0.1 101817
10 december, fri
fri1001:00−21wnw1210090 0.1 10189
04:00−18ssw335065 0.0 101310
07:00−17ssw4471100 0.0 101018
10:00−13s5679100 0.0 1006174
13:00−11s4474100 0.0 1003378
16:00−12nne1184100 0.0 100312
19:00−15nnw3381100 0.0 100721
22:00−15nnw3296100 0.1 101018
11 december, sat
sat1101:00−15nnw3399100 0.2 101226
04:00−16nnw4410099 0.1 101536
07:00−17nnw4410099 0.1 102035
10:00−15nnw56100100 0.0 1021169
13:00−11nnw568827 0.1 1019285
16:00−15nnw449982 0.0 102526
19:00−17nnw55100100 0.0 102974
22:00−16nnw4410099 0.0 103047
12 december, sun
sun1201:00−15nnw5410098 0.1 103169
04:00−17nnw449974 0.0 103326
07:00−18nnw439779 0.0 103626
10:00−12nnw44745 0.0 103261
13:00−8nnw456810 0.0 1027196
16:00−11nnw448039 0.0 103028
19:00−11nw439563 0.3 103227
22:00−10nw439970 0.3 103121
13 december, mon
mon1301:00−9nw4310091 0.4 102925
04:00−6nw3410099 0.0 102777
07:00−3nnw449486 0.1 1024140
10:00−3n569487 0.0 1025347
13:00−2n569684 0.1 1023349
16:00−3n569389 0.0 1024247
19:00−4n569595 0.0 1026212
22:00−4n559476 0.0 1026115